• In Portugal
  • List of Countries
  • For 7 days
  • Water Temperature
  • Satellite Maps
  • Weather Map
  • Weather Widgets
  • user-avatar
    Login

    Hourly Weather Gorodchevichi

    Today, 16 July, Monday

    Time Temperature Precipitation Wind Pressure Humidity
    00:00 +18°C° 0 mm 2 mps 739 mmHg 94%
    01:00 +18°C° 0 mm 2 mps 739 mmHg 94%
    02:00 +19°C° 0 mm 1 mps 740 mmHg 95%
    03:00 +19°C° 0.1 mm 1 mps 740 mmHg 95%
    04:00 +18°C° 0.1 mm 2 mps 740 mmHg 95%
    05:00 +18°C° 0.1 mm 2 mps 739 mmHg 96%
    06:00 +19°C° 0.3 mm 2 mps 740 mmHg 94%
    07:00 +19°C° 0.3 mm 3 mps 740 mmHg 92%
    08:00 +20°C° 0.3 mm 3 mps 740 mmHg 91%
    09:00 +21°C° 0.7 mm 3 mps 740 mmHg 88%
    10:00 +22°C° 0.7 mm 3 mps 739 mmHg 84%
    11:00 +24°C° 0.7 mm 3 mps 739 mmHg 81%
    12:00 +24°C° 0.9 mm 3 mps 739 mmHg 82%
    13:00 +23°C° 0.9 mm 4 mps 739 mmHg 82%
    14:00 +25°C° 0.9 mm 4 mps 739 mmHg 83%
    15:00 +25°C° 0.7 mm 4 mps 739 mmHg 83%
    16:00 +25°C° 0.7 mm 4 mps 739 mmHg 84%
    17:00 +25°C° 0.7 mm 4 mps 738 mmHg 84%
    18:00 +23°C° 1.2 mm 4 mps 738 mmHg 86%
    19:00 +22°C° 1.2 mm 4 mps 738 mmHg 88%
    20:00 +21°C° 1.2 mm 4 mps 738 mmHg 90%
    21:00 +21°C° 1.5 mm 4 mps 738 mmHg 92%
    22:00 +20°C° 1.5 mm 3 mps 738 mmHg 93%
    23:00 +20°C° 1.5 mm 3 mps 738 mmHg 94%

    Tomorrow, 17 July, Tuesday

    Time Temperature Precipitation Wind Pressure Humidity
    00:00 +20°C° 0.2 mm 3 mps 738 mmHg 95%
    01:00 +20°C° 0.2 mm 3 mps 737 mmHg 95%
    02:00 +19°C° 0.2 mm 3 mps 737 mmHg 96%
    03:00 +19°C° 0 mm 3 mps 737 mmHg 96%
    04:00 +19°C° 0 mm 4 mps 737 mmHg 96%
    05:00 +19°C° 0 mm 4 mps 737 mmHg 97%
    06:00 +20°C° 0 mm 4 mps 737 mmHg 93%
    07:00 +21°C° 0 mm 5 mps 737 mmHg 90%
    08:00 +22°C° 0 mm 5 mps 737 mmHg 87%
    09:00 +24°C° 0.5 mm 6 mps 737 mmHg 83%
    10:00 +26°C° 0.5 mm 6 mps 737 mmHg 79%
    11:00 +27°C° 0.5 mm 6 mps 737 mmHg 74%
    12:00 +27°C° 1.2 mm 6 mps 737 mmHg 75%
    13:00 +28°C° 1.2 mm 5 mps 737 mmHg 75%
    14:00 +28°C° 1.2 mm 5 mps 736 mmHg 75%
    15:00 +28°C° 0.8 mm 4 mps 736 mmHg 77%
    16:00 +27°C° 0.8 mm 4 mps 736 mmHg 79%
    17:00 +27°C° 0.8 mm 4 mps 736 mmHg 81%
    18:00 +26°C° 0.4 mm 3 mps 736 mmHg 83%
    19:00 +25°C° 0.4 mm 3 mps 736 mmHg 85%
    20:00 +22°C° 0.4 mm 3 mps 736 mmHg 87%
    21:00 +22°C° 0 mm 3 mps 736 mmHg 89%
    22:00 +21°C° 0 mm 3 mps 736 mmHg 90%
    23:00 +20°C° 0 mm 3 mps 736 mmHg 92%

    Day after tomorrow, 18 July, Wednesday

    Time Temperature Precipitation Wind Pressure Humidity
    00:00 +20°C° 0 mm 3 mps 736 mmHg 93%
    01:00 +20°C° 0 mm 3 mps 736 mmHg 93%
    02:00 +19°C° 0 mm 3 mps 736 mmHg 94%
    03:00 +19°C° 0 mm 3 mps 736 mmHg 94%
    04:00 +19°C° 0 mm 4 mps 736 mmHg 94%
    05:00 +19°C° 0 mm 4 mps 736 mmHg 94%
    06:00 +20°C° 0 mm 4 mps 736 mmHg 90%
    07:00 +21°C° 0 mm 4 mps 736 mmHg 86%
    08:00 +23°C° 0 mm 5 mps 736 mmHg 82%
    09:00 +23°C° 0 mm 5 mps 736 mmHg 78%
    10:00 +25°C° 0 mm 5 mps 736 mmHg 74%
    11:00 +26°C° 0 mm 5 mps 736 mmHg 70%
    12:00 +26°C° 0.4 mm 5 mps 736 mmHg 71%
    13:00 +26°C° 0.4 mm 5 mps 736 mmHg 72%
    14:00 +26°C° 0.4 mm 5 mps 736 mmHg 73%
    15:00 +26°C° 0.7 mm 5 mps 736 mmHg 73%
    16:00 +26°C° 0.7 mm 4 mps 736 mmHg 74%
    17:00 +26°C° 0.7 mm 4 mps 736 mmHg 74%
    18:00 +25°C° 0.7 mm 4 mps 736 mmHg 79%
    19:00 +22°C° 0.7 mm 3 mps 736 mmHg 84%
    20:00 +21°C° 0.7 mm 3 mps 736 mmHg 90%
    21:00 +20°C° 0.1 mm 3 mps 736 mmHg 91%
    22:00 +19°C° 0.1 mm 3 mps 736 mmHg 93%
    23:00 +19°C° 0.1 mm 3 mps 736 mmHg 95%

    19 July, Thursday

    Time Temperature Precipitation Wind Pressure Humidity
    00:00 +18°C° 0 mm 3 mps 736 mmHg 96%
    01:00 +18°C° 0 mm 3 mps 736 mmHg 96%
    02:00 +18°C° 0 mm 3 mps 736 mmHg 97%
    03:00 +18°C° 1.1 mm 3 mps 736 mmHg 97%
    04:00 +18°C° 1.1 mm 3 mps 736 mmHg 97%
    05:00 +18°C° 1.1 mm 3 mps 736 mmHg 97%
    06:00 +19°C° 0.2 mm 3 mps 736 mmHg 96%
    07:00 +19°C° 0.2 mm 3 mps 736 mmHg 95%
    08:00 +19°C° 0.2 mm 3 mps 736 mmHg 94%
    09:00 +20°C° 0.3 mm 3 mps 736 mmHg 91%
    10:00 +21°C° 0.3 mm 3 mps 736 mmHg 88%
    11:00 +22°C° 0.3 mm 3 mps 736 mmHg 85%
    12:00 +23°C° 1.1 mm 4 mps 736 mmHg 84%
    13:00 +23°C° 1.1 mm 4 mps 736 mmHg 82%
    14:00 +23°C° 1.1 mm 4 mps 736 mmHg 81%
    15:00 +23°C° 1.3 mm 4 mps 736 mmHg 82%
    16:00 +23°C° 1.3 mm 4 mps 736 mmHg 84%
    17:00 +24°C° 1.3 mm 3 mps 736 mmHg 86%
    18:00 +22°C° 0.4 mm 3 mps 736 mmHg 88%
    19:00 +21°C° 0.4 mm 3 mps 736 mmHg 90%
    20:00 +20°C° 0.4 mm 3 mps 736 mmHg 92%
    21:00 +20°C° 0.1 mm 2 mps 736 mmHg 93%
    22:00 +19°C° 0.1 mm 2 mps 736 mmHg 94%
    23:00 +18°C° 0.1 mm 2 mps 736 mmHg 96%

    20 July, Friday

    Time Temperature Precipitation Wind Pressure Humidity
    00:00 +18°C° 0 mm 2 mps 736 mmHg 96%
    01:00 +17°C° 0 mm 2 mps 736 mmHg 96%
    02:00 +17°C° 0 mm 2 mps 736 mmHg 97%
    03:00 +17°C° 0 mm 2 mps 736 mmHg 97%
    04:00 +17°C° 0 mm 2 mps 736 mmHg 97%
    05:00 +17°C° 0 mm 2 mps 736 mmHg 98%
    06:00 +18°C° 0 mm 2 mps 736 mmHg 94%
    07:00 +20°C° 0 mm 2 mps 736 mmHg 90%
    08:00 +21°C° 0 mm 2 mps 736 mmHg 86%
    09:00 +23°C° 0.6 mm 2 mps 736 mmHg 84%
    10:00 +24°C° 0.6 mm 2 mps 736 mmHg 82%
    11:00 +24°C° 0.6 mm 2 mps 736 mmHg 80%
    12:00 +25°C° 1.2 mm 2 mps 736 mmHg 77%
    13:00 +26°C° 1.2 mm 1 mps 736 mmHg 75%
    14:00 +27°C° 1.2 mm 1 mps 736 mmHg 73%
    15:00 +26°C° 0.4 mm 1 mps 735 mmHg 73%
    16:00 +26°C° 0.4 mm 1 mps 735 mmHg 74%
    17:00 +26°C° 0.4 mm 2 mps 735 mmHg 74%
    18:00 +25°C° 0.2 mm 1 mps 735 mmHg 79%
    19:00 +24°C° 0.2 mm 1 mps 735 mmHg 85%
    20:00 +23°C° 0.2 mm 1 mps 735 mmHg 90%
    21:00 +22°C° 0 mm 1 mps 735 mmHg 92%
    22:00 +21°C° 0 mm 1 mps 735 mmHg 93%
    23:00 +20°C° 0 mm 1 mps 735 mmHg 95%

    21 July, Saturday

    Time Temperature Precipitation Wind Pressure Humidity
    00:00 +20°C° 0 mm 1 mps 735 mmHg 95%
    01:00 +20°C° 0 mm 1 mps 735 mmHg 96%
    02:00 +19°C° 0 mm 1 mps 735 mmHg 96%
    03:00 +19°C° 0 mm 1 mps 735 mmHg 97%
    04:00 +19°C° 0 mm 1 mps 735 mmHg 97%
    05:00 +19°C° 0 mm 1 mps 735 mmHg 97%
    06:00 +20°C° 0 mm 2 mps 736 mmHg 93%
    07:00 +21°C° 0 mm 2 mps 736 mmHg 89%
    08:00 +23°C° 0 mm 2 mps 736 mmHg 85%
    09:00 +25°C° 0.2 mm 2 mps 736 mmHg 80%
    10:00 +26°C° 0.2 mm 2 mps 736 mmHg 75%
    11:00 +27°C° 0.2 mm 2 mps 736 mmHg 70%
    12:00 +27°C° 0.4 mm 2 mps 736 mmHg 69%
    13:00 +28°C° 0.4 mm 2 mps 735 mmHg 68%
    14:00 +28°C° 0.4 mm 2 mps 735 mmHg 67%
    15:00 +28°C° 1.4 mm 3 mps 735 mmHg 70%
    16:00 +27°C° 1.4 mm 3 mps 735 mmHg 73%
    17:00 +27°C° 1.4 mm 3 mps 735 mmHg 77%
    18:00 +26°C° 0.5 mm 3 mps 735 mmHg 82%
    19:00 +24°C° 0.5 mm 3 mps 735 mmHg 86%
    20:00 +23°C° 0.5 mm 2 mps 735 mmHg 91%
    21:00 +21°C° 0 mm 2 mps 735 mmHg 93%
    22:00 +21°C° 0 mm 2 mps 735 mmHg 94%
    23:00 +20°C° 0 mm 2 mps 735 mmHg 96%
    Show more